Hourly Data Report for January 28, 2019

TORONTO CITY
ONTARIO
Current Station Operator: ECCC - MSC

43°40'00.000" N
79°24'00.000" W
112.50 m
6158355
71508
XTO

Download Data

Hourly Data (January 2019)
Hourly Data Report for January 28, 2019
TIME
LST
Temp Definition
°C
Dew Point Definition
°C
Rel Hum Definition
%
Precip. Amount Definition
mm

Wind Dir Definition
10's deg

Wind Spd Definition
km/h
Visibility Definition
km
Stn Press Definition
kPa
Hmdx Definition


Wind Chill Definition


Weather Definition


00:00 -12.7 -17.9 65 0.0 LegendMM LegendMM   100.51     LegendNANA
01:00 -12.5 -18.8 60 0.0 LegendMM LegendMM   100.52     LegendNANA
02:00 -12.8 -18.9 60 0.0 LegendMM LegendMM   100.55     LegendNANA
03:00 -14.2 -19.4 65 0.0 LegendMM LegendMM   100.60     LegendNANA
04:00 -15.3 -20.0 67 0.0 LegendMM LegendMM   100.59     LegendNANA
05:00 -16.7 -21.3 68 0.0 LegendMM LegendMM   100.64     LegendNANA
06:00 -17.3 -24.1 56 0.0 LegendMM LegendMM   100.71     LegendNANA
07:00 -17.7 -25.0 53 0.0 LegendMM LegendMM   100.70     LegendNANA
08:00 -18.2 -27.0 46 0.0 LegendMM LegendMM   100.80     LegendNANA
09:00 -17.2 -25.7 48 0.0 LegendMM LegendMM   100.77     LegendNANA
10:00 -15.9 -23.9 50 0.0 LegendMM LegendMM   100.74     LegendNANA
11:00 -15.0 -20.4 63 0.0 LegendMM LegendMM   100.61     LegendNANA
12:00 -13.6 -16.5 78 0.0 LegendMM LegendMM   100.44     LegendNANA
13:00 -11.1 -13.0 85 0.2 LegendMM LegendMM   100.26     LegendNANA
14:00 -8.8 -10.4 89 0.3 LegendMM LegendMM   100.13     LegendNANA
15:00 -7.8 -9.0 91 0.9 LegendMM LegendMM   99.98     LegendNANA
16:00 -7.8 -8.9 91 0.7 LegendMM LegendMM   99.84     LegendNANA
17:00 -7.7 -9.0 90 0.2 LegendMM LegendMM   99.70     LegendNANA
18:00 -7.8 -9.0 92 1.5 LegendMM LegendMM   99.54     LegendNANA
19:00 -6.8 -7.9 92 1.1 LegendMM LegendMM   99.48     LegendNANA
20:00 -5.1 -6.0 93 1.8 LegendMM LegendMM   99.39     LegendNANA
21:00 -4.8 -5.7 93 1.4 LegendMM LegendMM   99.27     LegendNANA
22:00 -4.3 -5.1 94 1.5 LegendMM LegendMM   99.14     LegendNANA
23:00 -3.7 -4.4 95 1.2 LegendMM LegendMM   99.06     LegendNANA

Notes on Data Quality.

Legend

  • E = Estimated
  • M = Missing
  • NA = Not Available*
  • [empty] = Indicates an unobserved value
Date modified: